| time (UTC) | temp F | wind direction | speed knots | gust knots | rain 1hr in | rain 24hr in | rain mn in | humidity % | barometer mb |
| 20260503223802 | 71 | 270 | 7.8 | 19.1 | 0.00 | 0.00 | 0.00 | 25 | 1004.6 |
| 20260503223259 | 71 | 295 | 5.2 | 14.8 | 0.00 | 0.00 | 0.00 | 25 | 1004.7 |
| 20260503222755 | 70 | 279 | 9.6 | 20.9 | 0.00 | 0.00 | 0.00 | 26 | 1004.6 |
| 20260503222254 | 70 | 275 | 10.4 | 18.2 | 0.00 | 0.00 | 0.00 | 26 | 1004.5 |
| 20260503221751 | 70 | 297 | 10.4 | 23.5 | 0.00 | 0.00 | 0.00 | 27 | 1004.5 |
| 20260503221249 | 70 | 303 | 11.3 | 17.4 | 0.00 | 0.00 | 0.00 | 27 | 1004.5 |
| 20260503220745 | 70 | 316 | 5.2 | 15.6 | 0.00 | 0.00 | 0.00 | 26 | 1004.3 |
| 20260503220242 | 72 | 306 | 11.3 | 13.0 | 0.00 | 0.00 | 0.00 | 28 | 1004.6 |
| 20260503215739 | 71 | 317 | 9.6 | 19.1 | 0.00 | 0.00 | 0.00 | 29 | 1004.4 |
| 20260503215236 | 70 | 268 | 13.0 | 20.9 | 0.00 | 0.00 | 0.00 | 30 | 1004.5 |
| 20260503214734 | 71 | 292 | 4.3 | 14.8 | 0.00 | 0.00 | 0.00 | 31 | 1004.3 |
| 20260503214231 | 71 | 0 | 7.0 | 14.8 | 0.00 | 0.00 | 0.00 | 33 | 1004.4 |
| 20260503213729 | 71 | 289 | 7.8 | 14.8 | 0.00 | 0.00 | 0.00 | 34 | 1004.5 |
| 20260503213226 | 70 | 278 | 10.4 | 15.6 | 0.00 | 0.00 | 0.00 | 36 | 1004.4 |
| 20260503212722 | 70 | 263 | 15.6 | 20.0 | 0.00 | 0.00 | 0.00 | 35 | 1004.4 |
| 20260503212220 | 70 | 332 | 12.2 | 19.1 | 0.00 | 0.00 | 0.00 | 35 | 1004.5 |
| 20260503211718 | 71 | 297 | 8.7 | 19.1 | 0.00 | 0.00 | 0.00 | 35 | 1004.2 |
| 20260503211213 | 71 | 328 | 7.0 | 14.8 | 0.00 | 0.00 | 0.00 | 35 | 1004.2 |
| 20260503210710 | 71 | 283 | 6.1 | 12.2 | 0.00 | 0.00 | 0.00 | 38 | 1004.3 |
| 20260503210207 | 71 | 321 | 10.4 | 18.2 | 0.00 | 0.00 | 0.00 | 36 | 1004.4 |
| 20260503205702 | 70 | 280 | 9.6 | 12.2 | 0.00 | 0.00 | 0.00 | 36 | 1004.3 |
| 20260503205158 | 71 | 318 | 11.3 | 18.2 | 0.00 | 0.00 | 0.00 | 35 | 1004.4 |
| 20260503204655 | 71 | 351 | 6.1 | 20.0 | 0.00 | 0.00 | 0.00 | 34 | 1004.6 |
| 20260503204153 | 71 | 352 | 7.0 | 15.6 | 0.00 | 0.00 | 0.00 | 34 | 1004.5 |
| 20260503203649 | 71 | 344 | 9.6 | 14.8 | 0.00 | 0.00 | 0.00 | 34 | 1004.7 |
| 20260503203147 | 71 | 285 | 7.0 | 13.9 | 0.00 | 0.00 | 0.00 | 35 | 1004.6 |
| 20260503202644 | 70 | 304 | 7.8 | 19.1 | 0.00 | 0.00 | 0.00 | 38 | 1004.9 |
| 20260503202142 | 70 | 300 | 10.4 | 17.4 | 0.00 | 0.00 | 0.00 | 37 | 1004.8 |
| 20260503201640 | 70 | 277 | 7.8 | 10.4 | 0.00 | 0.00 | 0.00 | 36 | 1004.8 |
| 20260503201137 | 70 | 307 | 12.2 | 20.9 | 0.00 | 0.00 | 0.00 | 36 | 1004.9 |
| 20260503200633 | 70 | 276 | 9.6 | 14.8 | 0.00 | 0.00 | 0.00 | 36 | 1004.7 |
| 20260503200130 | 71 | 271 | 11.3 | 13.0 | 0.00 | 0.00 | 0.00 | 35 | 1005.0 |
| 20260503195627 | 72 | 329 | 13.0 | 17.4 | 0.00 | 0.00 | 0.00 | 35 | 1005.0 |
| 20260503195124 | 70 | 240 | 6.1 | 12.2 | 0.00 | 0.00 | 0.00 | 36 | 1005.1 |
| 20260503194621 | 70 | 319 | 12.2 | 14.8 | 0.00 | 0.00 | 0.00 | 36 | 1005.0 |
| 20260503194116 | 71 | 347 | 12.2 | 12.2 | 0.00 | 0.00 | 0.00 | 36 | 1004.8 |
| 20260503193613 | 70 | 284 | 7.0 | 16.5 | 0.00 | 0.00 | 0.00 | 37 | 1004.9 |
| 20260503193108 | 70 | 282 | 12.2 | 19.1 | 0.00 | 0.00 | 0.00 | 36 | 1005.0 |
| 20260503192604 | 70 | 319 | 9.6 | 17.4 | 0.00 | 0.00 | 0.00 | 37 | 1004.6 |
| 20260503192100 | 69 | 268 | 5.2 | 8.7 | 0.00 | 0.00 | 0.00 | 38 | 1005.0 |
| 20260503191557 | 69 | 314 | 13.9 | 17.4 | 0.00 | 0.00 | 0.00 | 39 | 1005.1 |
| 20260503191054 | 69 | 303 | 10.4 | 17.4 | 0.00 | 0.00 | 0.00 | 39 | 1005.1 |
| 20260503190551 | 69 | 342 | 5.2 | 12.2 | 0.00 | 0.00 | 0.00 | 40 | 1005.0 |
| 20260503190048 | 69 | 308 | 7.8 | 13.0 | 0.00 | 0.00 | 0.00 | 41 | 1005.1 |
| 20260503185545 | 69 | 314 | 7.0 | 13.0 | 0.00 | 0.00 | 0.00 | 41 | 1005.2 |
| 20260503185044 | 70 | 301 | 6.1 | 14.8 | 0.00 | 0.00 | 0.00 | 41 | 1005.1 |
| 20260503184540 | 68 | 305 | 7.0 | 14.8 | 0.00 | 0.00 | 0.00 | 41 | 1005.4 |
| 20260503184037 | 68 | 266 | 11.3 | 17.4 | 0.00 | 0.00 | 0.00 | 41 | 1005.2 |
| 20260503183534 | 68 | 307 | 6.1 | 14.8 | 0.00 | 0.00 | 0.00 | 43 | 1005.3 |
| 20260503183031 | 68 | 290 | 4.3 | 10.4 | 0.00 | 0.00 | 0.00 | 42 | 1005.5 |
| 20260503182529 | 68 | 285 | 13.0 | 15.6 | 0.00 | 0.00 | 0.00 | 42 | 1005.4 |
| 20260503182027 | 68 | 267 | 5.2 | 11.3 | 0.00 | 0.00 | 0.00 | 42 | 1005.2 |
| 20260503181524 | 67 | 324 | 7.0 | 10.4 | 0.00 | 0.00 | 0.00 | 43 | 1005.6 |
| 20260503181020 | 67 | 322 | 4.3 | 8.7 | 0.00 | 0.00 | 0.00 | 42 | 1005.4 |
| 20260503180518 | 67 | 276 | 7.8 | 11.3 | 0.00 | 0.00 | 0.00 | 43 | 1005.6 |
| 20260503180015 | 66 | 314 | 2.6 | 6.1 | 0.00 | 0.00 | 0.00 | 43 | 1005.8 |
| 20260503175512 | 67 | 325 | 6.1 | 17.4 | 0.00 | 0.00 | 0.00 | 42 | 1005.8 |
| 20260503175009 | 66 | 290 | 4.3 | 11.3 | 0.00 | 0.00 | 0.00 | 45 | 1005.8 |
| 20260503174507 | 67 | 287 | 5.2 | 14.8 | 0.00 | 0.00 | 0.00 | 44 | 1006.1 |
| 20260503174002 | 66 | 320 | 4.3 | 13.9 | 0.00 | 0.00 | 0.00 | 45 | 1005.7 |
| 20260503173457 | 65 | 319 | 6.1 | 13.9 | 0.00 | 0.00 | 0.00 | 44 | 1005.7 |
| 20260503172954 | 66 | 283 | 4.3 | 7.0 | 0.00 | 0.00 | 0.00 | 45 | 1006.1 |
| 20260503172452 | 65 | 295 | 7.8 | 11.3 | 0.00 | 0.00 | 0.00 | 44 | 1006.3 |
| 20260503171948 | 65 | 320 | 2.6 | 12.2 | 0.00 | 0.00 | 0.00 | 44 | 1005.8 |
| 20260503171445 | 65 | 308 | 4.3 | 10.4 | 0.00 | 0.00 | 0.00 | 45 | 1006.2 |
| 20260503170943 | 64 | 304 | 6.1 | 15.6 | 0.00 | 0.00 | 0.00 | 44 | 1006.1 |
| 20260503170438 | 65 | 180 | 4.3 | 14.8 | 0.00 | 0.00 | 0.00 | 45 | 1006.2 |
| 20260503150831 | 62 | 274 | 3.5 | 10.4 | 0.00 | 0.00 | 0.00 | 46 | 1006.3 |
| 20260503150327 | 62 | 251 | 6.1 | 10.4 | 0.00 | 0.00 | 0.00 | 46 | 1006.4 |
| 20260503140251 | 60 | 239 | 7.8 | 14.8 | 0.00 | 0.00 | 0.00 | 48 | 1006.7 |
| 20260503131221 | 60 | 185 | 1.7 | 5.2 | 0.00 | 0.00 | 0.00 | 52 | 1006.6 |
| 20260503130719 | 60 | 255 | 2.6 | 2.6 | 0.00 | 0.00 | 0.00 | 52 | 1006.5 |
| 20260503130216 | 59 | 198 | 3.5 | 6.1 | 0.00 | 0.00 | 0.00 | 52 | 1006.8 |
| 20260503120141 | 52 | 154 | 4.3 | 6.1 | 0.00 | 0.00 | 0.00 | 64 | 1006.5 |
| 20260503110609 | 50 | 157 | 4.3 | 5.2 | 0.00 | 0.00 | 0.00 | 70 | 1006.9 |
| 20260503110107 | 50 | 160 | 2.6 | 4.3 | 0.00 | 0.00 | 0.00 | 73 | 1006.9 |
| 20260503090456 | 53 | 180 | 0.9 | 5.2 | 0.00 | 0.00 | 0.00 | 55 | 1007.3 |
| 20260503081422 | 54 | 232 | 2.6 | 4.3 | 0.00 | 0.00 | 0.00 | 54 | 1008.0 |
| 20260503080920 | 55 | 221 | 4.3 | 4.3 | 0.00 | 0.00 | 0.00 | 54 | 1008.4 |
| 20260503080416 | 55 | 174 | 0.0 | 2.6 | 0.00 | 0.00 | 0.00 | 54 | 1008.1 |
| 20260503072852 | 55 | 184 | 3.5 | 5.2 | 0.00 | 0.00 | 0.00 | 54 | 1008.3 |
| 20260503072349 | 55 | 214 | 2.6 | 6.1 | 0.00 | 0.00 | 0.00 | 54 | 1008.6 |
| 20260503071846 | 55 | 178 | 2.6 | 3.5 | 0.00 | 0.00 | 0.00 | 55 | 1008.6 |
| 20260503071343 | 55 | 172 | 2.6 | 6.1 | 0.00 | 0.00 | 0.00 | 56 | 1008.9 |
| 20260503070839 | 55 | 230 | 2.6 | 5.2 | 0.00 | 0.00 | 0.00 | 58 | 1008.6 |
| 20260503070337 | 55 | 200 | 0.9 | 1.7 | 0.00 | 0.00 | 0.00 | 59 | 1008.8 |
| 20260503060303 | 57 | 188 | 0.0 | 2.6 | 0.00 | 0.00 | 0.00 | 59 | 1009.6 |
| 20260503054750 | 58 | 253 | 1.7 | 6.1 | 0.00 | 0.00 | 0.00 | 54 | 1010.1 |
| 20260503054246 | 57 | 266 | 1.7 | 5.2 | 0.00 | 0.00 | 0.00 | 58 | 1010.2 |
| 20260503053744 | 58 | 193 | 0.0 | 2.6 | 0.00 | 0.00 | 0.00 | 52 | 1010.3 |
| 20260503053243 | 58 | 260 | 3.5 | 3.5 | 0.00 | 0.00 | 0.00 | 51 | 1010.3 |
| 20260503052738 | 58 | 257 | 3.5 | 4.3 | 0.00 | 0.00 | 0.00 | 51 | 1010.2 |
| 20260503052235 | 58 | 252 | 1.7 | 4.3 | 0.00 | 0.00 | 0.00 | 51 | 1010.4 |
| 20260503051730 | 58 | 239 | 2.6 | 4.3 | 0.00 | 0.00 | 0.00 | 51 | 1010.4 |
| 20260503051228 | 58 | 226 | 1.7 | 3.5 | 0.00 | 0.00 | 0.00 | 50 | 1010.3 |
| 20260503050724 | 59 | 257 | 2.6 | 7.0 | 0.00 | 0.00 | 0.00 | 50 | 1010.2 |
| 20260503050221 | 59 | 200 | 1.7 | 5.2 | 0.00 | 0.00 | 0.00 | 50 | 1010.4 |
| 20260503045719 | 59 | 235 | 2.6 | 7.0 | 0.00 | 0.00 | 0.00 | 49 | 1010.3 |
| 20260503045216 | 59 | 184 | 1.7 | 5.2 | 0.00 | 0.00 | 0.00 | 50 | 1009.9 |
| 20260503044712 | 58 | 239 | 3.5 | 7.8 | 0.00 | 0.00 | 0.00 | 49 | 1010.5 |
| 20260503044210 | 59 | 246 | 5.2 | 6.1 | 0.00 | 0.00 | 0.00 | 49 | 1010.6 |
| 20260503043706 | 59 | 277 | 2.6 | 5.2 | 0.00 | 0.00 | 0.00 | 48 | 1010.3 |
| 20260503043204 | 59 | 255 | 7.0 | 7.0 | 0.00 | 0.00 | 0.00 | 48 | 1010.7 |
| 20260503042700 | 59 | 266 | 2.6 | 6.1 | 0.00 | 0.00 | 0.00 | 48 | 1010.7 |
| 20260503042156 | 59 | 195 | 1.7 | 3.5 | 0.00 | 0.00 | 0.00 | 48 | 1010.7 |
| 20260503041652 | 58 | 200 | 0.9 | 3.5 | 0.00 | 0.00 | 0.00 | 48 | 1010.6 |
| 20260503041150 | 59 | 223 | 0.9 | 3.5 | 0.00 | 0.00 | 0.00 | 48 | 1010.8 |
| 20260503040648 | 58 | 221 | 1.7 | 2.6 | 0.00 | 0.00 | 0.00 | 48 | 1010.7 |
| 20260503040145 | 59 | 200 | 0.9 | 3.5 | 0.00 | 0.00 | 0.00 | 47 | 1010.8 |
| 20260503035641 | 59 | 188 | 0.0 | 4.3 | 0.00 | 0.00 | 0.00 | 47 | 1011.1 |
| 20260503035139 | 59 | 257 | 2.6 | 5.2 | 0.00 | 0.00 | 0.00 | 47 | 1010.7 |
| 20260503034637 | 58 | 268 | 1.7 | 3.5 | 0.00 | 0.00 | 0.00 | 47 | 1011.2 |
| 20260503034133 | 58 | 245 | 1.7 | 3.5 | 0.00 | 0.00 | 0.00 | 47 | 1011.3 |
| 20260503033630 | 58 | 263 | 0.0 | 3.5 | 0.00 | 0.00 | 0.00 | 48 | 1011.4 |
| 20260503033128 | 57 | 233 | 1.7 | 3.5 | 0.00 | 0.00 | 0.00 | 50 | 1011.3 |
| 20260503032626 | 57 | 176 | 1.7 | 1.7 | 0.00 | 0.00 | 0.00 | 49 | 1011.5 |
| 20260503032125 | 57 | 167 | 1.7 | 2.6 | 0.00 | 0.00 | 0.00 | 49 | 1011.7 |
| 20260503031622 | 57 | 237 | 1.7 | 4.3 | 0.00 | 0.00 | 0.00 | 49 | 1011.6 |
| 20260503031119 | 57 | 224 | 1.7 | 4.3 | 0.00 | 0.00 | 0.00 | 49 | 1011.5 |
| 20260503030615 | 57 | 247 | 2.6 | 4.3 | 0.00 | 0.00 | 0.00 | 49 | 1011.6 |
| 20260503030112 | 58 | 271 | 3.5 | 3.5 | 0.00 | 0.00 | 0.00 | 48 | 1011.7 |
| 20260503025609 | 58 | 200 | 0.0 | 2.6 | 0.00 | 0.00 | 0.00 | 48 | 1011.8 |
| 20260503025107 | 58 | 200 | 0.0 | 1.7 | 0.00 | 0.00 | 0.00 | 47 | 1011.6 |
| 20260503024603 | 58 | 215 | 0.0 | 2.6 | 0.00 | 0.00 | 0.00 | 47 | 1011.7 |
| 20260503024100 | 58 | 188 | 1.7 | 2.6 | 0.00 | 0.00 | 0.00 | 46 | 1011.9 |
| 20260503023557 | 58 | 219 | 1.7 | 1.7 | 0.00 | 0.00 | 0.00 | 46 | 1011.7 |
| 20260503023054 | 58 | 219 | 1.7 | 3.5 | 0.00 | 0.00 | 0.00 | 46 | 1011.9 |
| 20260503022550 | 58 | 188 | 0.9 | 2.6 | 0.00 | 0.00 | 0.00 | 45 | 1011.8 |
| 20260503022045 | 58 | 215 | 0.0 | 2.6 | 0.00 | 0.00 | 0.00 | 46 | 1011.8 |
| 20260503021542 | 58 | 228 | 1.7 | 2.6 | 0.00 | 0.00 | 0.00 | 45 | 1011.8 |
| 20260503021039 | 58 | 212 | 0.9 | 4.3 | 0.00 | 0.00 | 0.00 | 45 | 1011.9 |
| 20260503020536 | 58 | 200 | 0.9 | 2.6 | 0.00 | 0.00 | 0.00 | 46 | 1011.9 |
| 20260503020033 | 58 | 179 | 0.0 | 2.6 | 0.00 | 0.00 | 0.00 | 45 | 1011.8 |
| 20260503015529 | 58 | 219 | 1.7 | 2.6 | 0.00 | 0.00 | 0.00 | 45 | 1011.8 |
| 20260503015027 | 58 | 212 | 0.9 | 2.6 | 0.00 | 0.00 | 0.00 | 45 | 1011.8 |
| 20260503014522 | 58 | 174 | 1.7 | 2.6 | 0.00 | 0.00 | 0.00 | 45 | 1011.8 |
| 20260503014021 | 58 | 214 | 1.7 | 2.6 | 0.00 | 0.00 | 0.00 | 45 | 1011.7 |
| 20260503013518 | 58 | 221 | 1.7 | 3.5 | 0.00 | 0.00 | 0.00 | 45 | 1011.7 |
| 20260503013015 | 59 | 189 | 0.9 | 5.2 | 0.00 | 0.00 | 0.00 | 44 | 1011.7 |
| 20260503012513 | 59 | 210 | 2.6 | 2.6 | 0.00 | 0.00 | 0.00 | 45 | 1011.9 |
| 20260503012009 | 59 | 184 | 1.7 | 3.5 | 0.00 | 0.00 | 0.00 | 44 | 1011.9 |
| 20260503011506 | 59 | 205 | 0.9 | 2.6 | 0.00 | 0.00 | 0.00 | 44 | 1011.9 |
| 20260503011003 | 59 | 182 | 1.7 | 3.5 | 0.00 | 0.00 | 0.00 | 44 | 1011.7 |
| 20260503010459 | 59 | 185 | 3.5 | 3.5 | 0.00 | 0.00 | 0.00 | 43 | 1012.0 |
| 20260503005956 | 59 | 232 | 2.6 | 3.5 | 0.00 | 0.00 | 0.00 | 43 | 1012.1 |
| 20260503005453 | 60 | 203 | 2.6 | 4.3 | 0.00 | 0.00 | 0.00 | 42 | 1011.9 |
| 20260503004950 | 60 | 218 | 2.6 | 2.6 | 0.00 | 0.00 | 0.00 | 42 | 1011.9 |
| 20260503004447 | 60 | 181 | 0.0 | 2.6 | 0.00 | 0.00 | 0.00 | 41 | 1012.0 |
| 20260503003945 | 60 | 210 | 1.7 | 5.2 | 0.00 | 0.00 | 0.00 | 41 | 1012.0 |
| 20260503003441 | 61 | 194 | 2.6 | 2.6 | 0.00 | 0.00 | 0.00 | 40 | 1012.1 |
| 20260503002938 | 61 | 196 | 1.7 | 3.5 | 0.00 | 0.00 | 0.00 | 40 | 1012.2 |
| 20260503002435 | 61 | 216 | 0.0 | 4.3 | 0.00 | 0.00 | 0.00 | 40 | 1012.2 |
| 20260503001932 | 61 | 271 | 0.0 | 6.1 | 0.00 | 0.00 | 0.00 | 40 | 1012.2 |
| 20260503001428 | 61 | 225 | 3.5 | 4.3 | 0.00 | 0.00 | 0.00 | 39 | 1012.4 |
| 20260503000926 | 62 | 223 | 2.6 | 4.3 | 0.00 | 0.00 | 0.00 | 40 | 1012.3 |
| 20260503000423 | 61 | 236 | 2.6 | 5.2 | 0.00 | 0.00 | 0.00 | 39 | 1012.3 |
| 20260502235920 | 61 | 239 | 3.5 | 7.8 | 0.00 | 0.00 | 0.00 | 39 | 1012.3 |
| 20260502235417 | 61 | 259 | 3.5 | 9.6 | 0.00 | 0.00 | 0.00 | 39 | 1012.6 |
| 20260502234914 | 61 | 228 | 2.6 | 6.1 | 0.00 | 0.00 | 0.00 | 39 | 1012.5 |
| 20260502234411 | 61 | 261 | 5.2 | 11.3 | 0.00 | 0.00 | 0.00 | 39 | 1012.5 |
| 20260502233908 | 61 | 243 | 4.3 | 9.6 | 0.00 | 0.00 | 0.00 | 39 | 1012.6 |
| 20260502233403 | 61 | 235 | 5.2 | 9.6 | 0.00 | 0.00 | 0.00 | 38 | 1012.7 |
| 20260502232900 | 61 | 277 | 8.7 | 11.3 | 0.00 | 0.00 | 0.00 | 38 | 1012.9 |
| 20260502232357 | 62 | 257 | 4.3 | 6.1 | 0.00 | 0.00 | 0.00 | 39 | 1012.9 |
| 20260502231854 | 61 | 241 | 6.1 | 9.6 | 0.00 | 0.00 | 0.00 | 39 | 1013.0 |
| 20260502231351 | 61 | 205 | 2.6 | 10.4 | 0.00 | 0.00 | 0.00 | 39 | 1012.9 |
| 20260502230849 | 61 | 278 | 7.0 | 15.6 | 0.00 | 0.00 | 0.00 | 38 | 1013.0 |
| 20260502230347 | 62 | 265 | 9.6 | 10.4 | 0.00 | 0.00 | 0.00 | 38 | 1012.9 |
| 20260502225844 | 61 | 287 | 9.6 | 13.9 | 0.00 | 0.00 | 0.00 | 38 | 1013.1 |
| 20260502225340 | 61 | 282 | 5.2 | 13.0 | 0.00 | 0.00 | 0.00 | 38 | 1013.2 |
| 20260502224838 | 61 | 301 | 9.6 | 14.8 | 0.00 | 0.00 | 0.00 | 38 | 1013.0 |
| 20260502224334 | 62 | 269 | 10.4 | 14.8 | 0.00 | 0.00 | 0.00 | 37 | 1013.3 |
| 20260502223831 | 61 | 285 | 7.8 | 14.8 | 0.00 | 0.00 | 0.00 | 38 | 1013.2 |